2024/04/14 00:00:00, 0.1,10.0
2024/04/14 00:10:00, 0.2, 9.9
2024/04/14 00:20:00, 0.1,10.1
2024/04/14 00:30:00, 0.1, 9.6
2024/04/14 00:40:00, 0.1, 9.5
2024/04/14 00:50:00, 0.1, 9.4
2024/04/14 01:00:00, 0.2, 9.2
2024/04/14 01:10:00, 0.2, 9.2
2024/04/14 01:20:00, 0.2, 9.1
2024/04/14 01:30:00, 0.1, 9.2
2024/04/14 01:40:00, 0.2, 8.8
2024/04/14 01:50:00, 0.2, 8.9
2024/04/14 02:00:00, 0.2, 8.7
2024/04/14 02:10:00, 0.2, 8.7
2024/04/14 02:20:00, 0.3, 8.4
2024/04/14 02:30:00, 0.3, 8.4
2024/04/14 02:40:00, 0.3, 8.4
2024/04/14 02:50:00, 0.3, 8.4
2024/04/14 03:00:00, 0.3, 8.5
2024/04/14 03:10:00, 0.4, 8.2
2024/04/14 03:20:00, 0.4, 8.1
2024/04/14 03:30:00, 0.3, 8.5
2024/04/14 03:40:00, 0.3, 8.0
2024/04/14 03:50:00, 0.4, 8.2
2024/04/14 04:00:00, 0.4, 7.9
2024/04/14 04:10:00, 0.3, 7.8
2024/04/14 04:20:00, 0.4, 7.7
2024/04/14 04:30:00, 0.4, 7.5
2024/04/14 04:40:00, 0.4, 7.2
2024/04/14 04:50:00, 0.4, 7.3
2024/04/14 05:00:00, 0.4, 7.3
2024/04/14 05:10:00, 0.5, 7.5
2024/04/14 05:20:00, 0.4, 7.0
2024/04/14 05:30:00, 0.5, 7.1
2024/04/14 05:40:00, 0.5, 7.1
2024/04/14 05:50:00, 0.6, 7.1
2024/04/14 06:00:00, 0.6, 6.9
2024/04/14 06:10:00, 0.9, 7.1
2024/04/14 06:20:00, 0.5, 7.0
2024/04/14 06:30:00, 0.5, 7.0
2024/04/14 06:40:00, 0.4, 7.0
2024/04/14 06:50:00, 0.4, 7.3
2024/04/14 07:00:00, 0.4, 7.6
2024/04/14 07:10:00, 0.2, 8.3
2024/04/14 07:20:00, 0.7,10.0
2024/04/14 07:30:00, 0.2,10.3
2024/04/14 07:40:00, 0.2,10.5
2024/04/14 07:50:00, 0.3,10.9
2024/04/14 08:00:00, 0.8,11.5
2024/04/14 08:10:00, 0.4,12.3
2024/04/14 08:20:00, 0.1,12.9
2024/04/14 08:30:00, 0.1,13.4
2024/04/14 08:40:00, 0.1,14.5
2024/04/14 08:50:00, 0.0,15.2
2024/04/14 09:00:00, 0.0,16.3
2024/04/14 09:10:00, 0.1,17.5
2024/04/14 09:20:00, 0.1,18.3
2024/04/14 09:30:00, 0.2,19.8
2024/04/14 09:40:00, 0.2,19.5
2024/04/14 09:50:00, 0.3,20.5
2024/04/14 10:00:00, 0.3,21.0
2024/04/14 10:10:00, 0.4,21.9
2024/04/14 10:20:00, 0.4,22.7
2024/04/14 10:30:00, 0.3,24.0
2024/04/14 10:40:00, 0.2,25.3
2024/04/14 10:50:00, 0.0,26.4
2024/04/14 11:00:00, 0.1,27.0
2024/04/14 11:10:00, 0.1,26.9
2024/04/14 11:20:00, 0.0,27.5
2024/04/14 11:30:00, 0.0,27.3
2024/04/14 11:40:00, 0.1,28.0
2024/04/14 11:50:00, 0.3,27.8
2024/04/14 12:00:00, 0.3,27.1
2024/04/14 12:10:00, 0.3,27.1
2024/04/14 12:20:00, 0.3,28.1
2024/04/14 12:30:00, 0.4,29.1
2024/04/14 12:40:00, 0.6,28.9
2024/04/14 12:50:00, 0.6,29.1
2024/04/14 13:00:00, 0.7,28.5
2024/04/14 13:10:00, 0.8,28.6
2024/04/14 13:20:00, 4.7,27.0
2024/04/14 13:30:00, 6.2,26.9
2024/04/14 13:40:00, 7.3,26.7
2024/04/14 13:50:00,11.8,26.7
2024/04/14 14:00:00,10.4,26.5
2024/04/14 14:10:00, 9.3,26.8
2024/04/14 14:20:00, 0.9,26.8
2024/04/14 14:30:00, 6.0,26.5
2024/04/14 14:40:00,14.1,26.5
2024/04/14 14:50:00, 2.8,26.3
2024/04/14 15:00:00, 5.3,25.7
2024/04/14 15:10:00, 5.2,26.1
2024/04/14 15:20:00, 2.0,25.4
2024/04/14 15:30:00, 1.4,25.8
2024/04/14 15:40:00, 0.6,26.0
2024/04/14 15:50:00, 0.7,24.7
2024/04/14 16:00:00, 1.1,25.1
2024/04/14 16:10:00, 0.7,24.9
2024/04/14 16:20:00, 0.8,24.0
2024/04/14 16:30:00, 0.5,23.8
2024/04/14 16:40:00, 0.4,23.6
2024/04/14 16:50:00, 0.6,23.7
2024/04/14 17:00:00, 0.7,22.9
2024/04/14 17:10:00, 0.7,22.9
2024/04/14 17:20:00, 1.1,22.9
2024/04/14 17:30:00, 1.4,22.0
2024/04/14 17:40:00, 4.9,20.8
2024/04/14 17:50:00,10.7,20.4
2024/04/14 18:00:00, 0.9,19.4
2024/04/14 18:10:00, 0.7,18.9
2024/04/14 18:20:00, 0.7,18.4
2024/04/14 18:30:00, 0.9,17.8
2024/04/14 18:40:00, 0.9,17.3
2024/04/14 18:50:00, 0.9,16.8
2024/04/14 19:00:00, 0.8,16.5
2024/04/14 19:10:00, 0.6,16.7
2024/04/14 19:20:00, 0.9,15.7
2024/04/14 19:30:00, 1.0,15.3
2024/04/14 19:40:00, 0.9,15.1
2024/04/14 19:50:00, 0.9,15.0
2024/04/14 20:00:00, 1.1,14.8
2024/04/14 20:10:00, 1.1,14.6
2024/04/14 20:20:00, 1.0,14.5
2024/04/14 20:30:00, 1.1,14.1
2024/04/14 20:40:00, 1.2,14.0
2024/04/14 20:50:00, 1.4,13.5
2024/04/14 21:00:00, 1.7,13.4
2024/04/14 21:10:00, 2.4,13.2
2024/04/14 21:20:00, 6.0,13.4
2024/04/14 21:30:00,28.4,12.9
2024/04/14 21:40:00,28.4,12.8
2024/04/14 21:50:00,21.3,12.4
2024/04/14 22:00:00, 3.5,12.6
2024/04/14 22:10:00, 3.3,12.3
2024/04/14 22:20:00, 3.3,12.1
2024/04/14 22:30:00, 3.5,12.3
2024/04/14 22:40:00, 3.6,11.8
2024/04/14 22:50:00, 3.7,11.8
2024/04/14 23:00:00, 3.6,11.7
2024/04/14 23:10:00, 3.7,11.4
2024/04/14 23:20:00, 3.7,11.3
2024/04/14 23:30:00, 3.7,11.2
2024/04/14 23:40:00, 3.7,11.2
2024/04/14 23:50:00, 3.7,11.0
